Location: Asheville, NC
(35.6000°N, 82.5500°W)
Time: 14:20:35
(UTC-04:00)

RS-15 - Pass Details

Date: 08 January 2018
Orbit: 1891 x 2154 km, 64.8° (Epoch: 15 July)

Event Time Altitude Azimuth Distance (km) Brightness Sun altitude
Rises 20:09:48 0° 329° (NNW) 5,558 10.7 -31.0°
Reaches altitude 10° 20:13:14 10° 330° (NNW) 4,522 10.2 -31.7°
Maximum altitude 20:24:56 88° 243° (WSW) 1,981 7.9 -34.1°
Enters shadow 20:31:15 32° 155° (SSE) 2,942 8.7 -35.4°
